[[{"header":{"parameterUnit":"m.s-1","parameterCategory":1,"la1":30.2992,"la2":30.254,"lo1":-89.0895,"lo2":-89.0443,"dy":0.0025,"dx":0.0025,"nx":19,"ny":19,"refTime":"2026-04-11T09:00:00:Z","depth":0,"parameterNumber":2,"parameterNumberName":"U-component_of_WINDS"},"data":[0,0,0,-1.5319,-1.5321,-1.5382,-1.5382,-1.547,-1.5471,0,0,0,0,0,0,0,0,0,0,0,-1.5307,-1.5308,-1.5319,-1.5321,-1.5382,-1.5382,-1.547,-1.5471,0,0,0,0,0,0,0,0,0,0,0,-1.5307,-1.5308,-1.5309,-1.5321,-1.5382,-1.5382,-1.547,-1.542,0,0,0,0,0,0,0,0,0,0,-1.5359,-1.5354,-1.5307,-1.5309,-1.5321,-1.5382,-1.5382,-1.5418,-1.5423,-1.5447,0,-1.547,0,-1.5472,-1.5478,-1.5478,0,0,0,-1.5316,-1.5349,-1.536,-1.5309,-1.5322,-1.5382,-1.5353,-1.5421,-1.5427,-1.5455,-1.5471,-1.5474,-1.5473,-1.5478,-1.5479,-1.5632,-1.5633,0,0,-1.5313,-1.5321,-1.5356,-1.5365,-1.5356,-1.5351,-1.5355,-1.5424,-1.5443,-1.5471,-1.5476,-1.5475,-1.5479,-1.548,-1.5631,-1.5632,0,0,0,-1.5306,-1.5319,-1.5328,-1.5361,-1.5372,-1.5353,-1.5357,-1.544,-1.5442,-1.5477,-1.5476,-1.548,-1.5481,-1.563,-1.5632,-1.5687,0,0,0,-1.5304,-1.5315,-1.5327,-1.5333,-1.5371,-1.5406,-1.5371,-1.5437,-1.5445,-1.5475,-1.548,-1.5482,-1.5629,-1.5631,-1.5684,-1.5713,0,0,0,-1.5301,-1.5315,-1.5326,-1.5333,-1.536,-1.5405,-1.5411,-1.5438,-1.5445,-1.5478,-1.5482,-1.5628,-1.5631,-1.568,-1.5707,-1.5757,0,0,0,-1.53,-1.5373,-1.5327,-1.5408,-1.5359,-1.5439,-1.5411,-1.5469,-1.5505,-1.548,-1.5629,-1.5631,-1.5679,-1.5704,-1.5753,-1.5801,-1.5821,0,0,-1.5397,-1.5385,-1.5433,-1.5393,-1.5483,-1.5429,-1.5527,-1.5551,-1.5546,-1.5604,-1.5607,-1.5685,-1.5707,-1.5756,-1.5931,-1.5947,0,0,0,-1.5467,-1.5501,-1.5523,-1.5557,-1.5578,-1.5598,-1.5606,-1.5615,-1.5664,-1.5577,-1.5715,-1.5728,-1.5756,-1.5779,-1.5793,-1.5818,-1.5642,-1.5642,-1.5641,-1.5617,-1.5607,-1.5685,-1.5683,-1.5717,-1.5725,-1.5752,-1.5766,-1.5745,-1.5778,-1.5795,-1.5902,-1.5929,-1.594,-1.5965,-1.5819,-1.5819,-1.5819,-1.5819,-1.576,-1.5807,-1.5779,-1.5845,-1.5834,-1.5889,-1.59,-1.5884,-1.5934,-1.5888,-1.5913,-1.5865,-1.5958,-1.598,-1.5823,-1.5823,-1.5822,-1.5822,-1.5821,-1.5858,-1.588,-1.589,-1.594,-1.5979,-1.5974,-1.6024,-1.6012,-1.6001,-1.6025,-1.6043,-1.6042,-1.6041,-1.6034,-1.6035,-1.6035,-1.6035,-1.6036,-1.6036,-1.5957,-1.5967,-1.6011,-1.6039,-1.6061,-1.6087,-1.6096,-1.6117,-1.6137,-1.6124,-1.6124,-1.6102,-1.5968,-1.5936,-1.6042,-1.6041,-1.604,-1.6039,-1.6039,-1.6108,-1.6072,-1.614,-1.6162,-1.6195,-1.6236,-1.622,-1.6263,-1.6278,-1.6303,-1.6275,-1.6178,-1.6165,-1.6154,-1.6127,-1.6276,-1.6276,-1.6276,-1.6276,-1.6192,-1.6184,-1.6252,-1.6287,-1.632,-1.6313,-1.6391,-1.6399,-1.6402,-1.6411,-1.6387,-1.635,-1.6339,-1.6333,-1.6318,-1.6293,-1.648,-1.6481,-1.6481,-1.6285,-1.628,-1.6349,-1.6352,-1.6377,-1.6399,-1.6472,-1.6515,-1.651,-1.6489,-1.6418,-1.6409,-1.6349,-1.633,-1.6309,-1.6286,-1.6239,0,0]},{"header":{"parameterUnit":"m.s-1","parameterCategory":1,"la1":30.2992,"la2":30.254,"lo1":-89.0895,"lo2":-89.0443,"dy":0.0025,"dx":0.0025,"nx":19,"ny":19,"refTime":"2026-04-11T09:00:00:Z","depth":0,"parameterNumber":3,"parameterNumberName":"V-component_of_WINDS"},"data":[0,0,0,0.2973,0.2973,0.2968,0.2968,0.2981,0.2981,0,0,0,0,0,0,0,0,0,0,0,0.2985,0.2986,0.2973,0.2973,0.2968,0.2968,0.2981,0.2981,0,0,0,0,0,0,0,0,0,0,0,0.2985,0.2986,0.2986,0.2973,0.2968,0.2968,0.2981,0.2978,0,0,0,0,0,0,0,0,0,0,0.2979,0.3001,0.2985,0.2986,0.2973,0.2968,0.2968,0.2977,0.2978,0.2991,0,0.3005,0,0.2993,0.2983,0.2983,0,0,0,0.2965,0.3001,0.2989,0.2986,0.2973,0.2968,0.2968,0.2977,0.2978,0.2992,0.3005,0.3005,0.2993,0.2983,0.2983,0.3084,0.3085,0,0,0.2965,0.299,0.2989,0.299,0.2992,0.2968,0.2968,0.2977,0.2994,0.3005,0.3005,0.2994,0.2983,0.2984,0.3083,0.3084,0,0,0,0.2971,0.2991,0.2979,0.299,0.2988,0.2968,0.2968,0.2993,0.2987,0.3005,0.2994,0.2983,0.2984,0.3082,0.3083,0.315,0,0,0,0.2971,0.2994,0.2979,0.2995,0.2988,0.2991,0.2984,0.2986,0.2987,0.2994,0.2983,0.2984,0.3081,0.3083,0.3146,0.3177,0,0,0,0.2982,0.2996,0.2999,0.2996,0.2995,0.299,0.2984,0.2986,0.298,0.2983,0.2984,0.3081,0.3083,0.3142,0.3171,0.3211,0,0,0,0.3001,0.3058,0.3,0.306,0.2995,0.3031,0.2984,0.3009,0.3019,0.2984,0.3081,0.3083,0.3141,0.3168,0.3207,0.3249,0.3269,0,0,0.3087,0.3069,0.3102,0.305,0.3103,0.3029,0.3091,0.3077,0.3054,0.3075,0.3078,0.3147,0.3171,0.321,0.3369,0.3385,0,0,0,0.3138,0.3162,0.3171,0.3181,0.3171,0.3166,0.3139,0.3134,0.315,0.307,0.3171,0.3185,0.3207,0.3225,0.3239,0.3256,0.3093,0.3093,0.3093,0.3297,0.3265,0.3317,0.3284,0.3295,0.3267,0.3273,0.3261,0.3226,0.325,0.3256,0.3357,0.338,0.339,0.3408,0.3275,0.3276,0.3276,0.3276,0.3421,0.345,0.3401,0.3434,0.34,0.3428,0.3403,0.3377,0.3398,0.335,0.3367,0.3317,0.3408,0.3422,0.3281,0.328,0.3279,0.3279,0.3279,0.3521,0.3529,0.3522,0.3533,0.3546,0.3511,0.3534,0.3502,0.3472,0.3489,0.3492,0.3491,0.3486,0.3493,0.3493,0.3494,0.3494,0.3494,0.3494,0.3629,0.3618,0.364,0.3635,0.3637,0.3636,0.3609,0.361,0.3604,0.3579,0.3579,0.3541,0.3423,0.3394,0.35,0.3499,0.3498,0.3498,0.3497,0.3766,0.373,0.3765,0.3768,0.3758,0.3773,0.3732,0.3738,0.3735,0.3747,0.3706,0.3623,0.3603,0.3592,0.3568,0.3712,0.3712,0.3712,0.3712,0.3851,0.3837,0.3866,0.3872,0.3875,0.3841,0.3882,0.3861,0.3834,0.383,0.3805,0.377,0.376,0.3746,0.3731,0.3708,0.3885,0.3885,0.3886,0.3934,0.3919,0.396,0.3932,0.3923,0.3915,0.3953,0.3963,0.3925,0.3892,0.3827,0.3819,0.3763,0.3746,0.3712,0.3691,0.3648,0,0]}]]